This demonstration page uses our WeatherBlox Daily Observations layout. Learn more.

Left ArrowRight Arrow

34.74481, -87.66753

Hourly Observations for May 17, 2020

Temp ( °F °C ) Dew Point ( °F °C ) Humidity (%) Winds ( mph kmh ) Pressure ( in mb ) Visibility ( mi km ) Precip ( " mm )
12:53 am 00:53 Clear 70 21.1 62 16.7 76 76 E 5 7 29.88 1012 10 16 0.00 0.00
1:53 am 01:53 Partly Cloudy 70 21.1 61 16.1 73 73 ESE 3 6 29.87 1011 10 16 0.00 0.00
2:53 am 02:53 Mostly Cloudy 70 21.1 61 16.1 73 73 Calm 29.86 1011 10 16 0.00 0.00
3:53 am 03:53 Partly Cloudy 70 21.1 60 15.6 71 71 SE 6 9 29.86 1011 10 16 0.00 0.00
4:53 am 04:53 Mostly Cloudy 70 21.1 61 16.1 73 73 SSE 3 6 29.87 1012 10 16 0.00 0.00
5:53 am 05:53 Mostly Cloudy 69 20.6 61 16.1 76 76 ESE 6 9 29.87 1011 10 16 0.00 0.00
6:53 am 06:53 Mostly Cloudy with Light Rain 69 20.6 61 16.1 76 76 ESE 3 6 29.89 1012 10 16 0.00 0.00
7:53 am 07:53 Mostly Cloudy 70 21.1 61 16.1 73 73 SE 9 15 29.89 1012 10 16 0.01 0.25
8:53 am 08:53 Mostly Cloudy 72 22.2 63 17.2 73 73 SE 8 13 29.90 1012 10 16 0.00 0.00
9:53 am 09:53 Cloudy with Light Rain 73 22.8 64 17.8 74 74 SE 10 17 29.89 1012 10 16 0.00 0.00
10:53 am 10:53 Partly Cloudy 75 23.9 65 18.3 71 71 SE 9 15 29.89 1012 10 16 0.00 0.00
11:53 am 11:53 Mostly Sunny 77 25 66 18.9 69 69 SSE 10 17 29.89 1012 10 16 0.00 0.00
12:53 pm 12:53 Mostly Sunny 81 27.2 67 19.4 62 62 SSE 14 22 29.85 1011 10 16 0.00 0.00
1:53 pm 13:53 Mostly Cloudy 80 26.7 65 18.3 60 60 S 15 24 29.84 1011 10 16 0.00 0.00
2:53 pm 14:53 Mostly Cloudy 82 27.8 66 18.9 58 58 SSE 13 20 29.80 1009 10 16 0.00 0.00
3:53 pm 15:53 Cloudy 81 27.2 66 18.9 61 61 S 13 20 29.79 1009 10 16 0.00 0.00
4:53 pm 16:53 Mostly Cloudy 84 28.9 68 20 59 59 SSE 13 20 29.78 1008 10 16 0.00 0.00
5:53 pm 17:53 Sunny 82 27.8 67 19.4 60 60 SSE 12 19 29.78 1008 10 16 0.00 0.00
6:53 pm 18:53 Mostly Sunny 80 26.7 67 19.4 64 64 SSE 10 17 29.77 1008 10 16 0.00 0.00
7:53 pm 19:53 Clear 77 25 68 20 74 74 SE 10 17 29.80 1009 10 16 0.00 0.00
8:53 pm 20:53 Clear 75 23.9 68 20 79 79 SE 10 17 29.79 1009 10 16 0.00 0.00
9:53 pm 21:53 Mostly Cloudy 75 23.9 68 20 79 79 SW 9 15 29.85 1011 10 16 0.00 0.00
10:10 pm 22:10 Cloudy with Nearby Thunderstorms 71 21.7 61 16.1 71 71 W 15 24 29.86 1011 10 16 0.00 0.00
10:31 pm 22:31 Cloudy with Light Rain 67 19.4 64 17.8 91 91 Calm 29.84 1010 5 8 0.15 3.81
10:53 pm 22:53 Cloudy with Light Rain 67 19.4 64 17.8 91 91 Calm 29.83 1010 9 14 0.20 5.08
11:53 pm 23:53 Mostly Cloudy with Nearby Thunderstorms 67 19.4 64 17.8 91 91 SE 6 9 29.82 1010 9 14 0.03 0.76

Powered by AerisWeather